Showing default

OV1-9, 2610

Orbit data source: Space-Track

OV1-9, 2610 is a payload satellite owned by USAF OAR (US) in LEO that was launched on Sun, 11 Dec 1966 UTC via an ATLAS D launch vehicle from the Air Force Western Test Range (AFWTR). Payload-class satellites include a variety of spacecraft equipped with specific instruments for various scientific and technological missions. These include communications satellites like Starlink; space stations such as the ISS; scientific satellites like the Hubble; Earth observation satellites from companies like Planet Labs, Umbra, and HawkEye 360; GPS; miniature CubeSats for education and research; and military/defense satellites.

Loading next visibility...
Identifier
2610, 1966-111A
Orbit
LEO
Country
Flag of USUS
Related business
Manufacturer
GD/Convair
Mission
Spacecraft
Bus & Motor
OV1, Unknown motor
Mass
106 kg wet, 106 kg dry
Launch date (UTC)
1966-12-11 (60 years ago)
Launch vehicle
ATLAS D
Launch site
Air Force Western Test Range (AFWTR)
Object type
Payload
Rocket body
Debris
Shape & HBR
DOMED CYL, 0.7 m
Radar Cross Section
Medium (>0.1 m² and <1 m²)

Expand to show TLE details & history
Last TLE update: 18 hours ago

TLE from 18 hours ago
0 OV1-9
1 02610U 66111A   26206.34779006  .00000221  00000-0  99952-4 0  9999
2 02610  99.1010 357.0843 2271472 318.8573  26.1273 10.39921203237004
Epoch: 2026-07-25T08:20Z
TLE epoch observation values (Epoch: 2026-07-25T08:20:49.061Z)
Latitude
0.00002°
Longitude
-71.18149°
Altitude
806.55 km
Speed
8.127 km/s
True Right ascension
23h 48m 20s
True Declination
0° 00' 00"
Sunlit
Object was in full shadow at epoch
Visualization orbit readout
Latitude
Unknown
Longitude
Unknown
Altitude
Unknown
Speed
Unknown
Apparent Right ascension
Unknown
Apparent Declination
Unknown
Sunlit
N/A
Visualization observer readout
Local Sidereal Time
15:20:05
Azimuth
Unknown
Elevation
Unknown
Doppler factor
Unknown
Orbital elements
Apogee altitude
4,498.884 km
Perigee altitude
472.171 km
Semi-major axis
8,863.665 km
Eccentricity
0.22715
Inclination
99.101°
RAAN
357.0843°
Arg. of periapsis
318.8573°
True anomaly
41.25671°
Mean anomaly
26.1273°
Eccentric anomaly
33.26618°
Mean motion
2.6009 °/min
Orbital period
138.41 mins
BSTAR
0.000099952
Loading maneuver chart data...
Computing Atmospheric mass density...
Loading historical data...
Loading historical data...
Loading historical data...
Loading historical data...
Loading historical data...
Loading historical data...
Loading historical data...
Other satellites on launch #111 in the year 1966 (1966-12-11 UTC)

Documentation

Showing up to 5 results
|